Погода в Дельменхорсте

Германия     53°03′06″N   8°38′11″E
темп.,
°C
ветер,
м/с
пор.,
м/с
влажн.,
%
обл.,
%
осадки,
мм/ч
давл.,
гПа
погр.,
м
18 мая, вт
вт1823:00+8сз4897100 1.4 1006222
02:00+6з38979 1.6 1008149
05:00+5зюз379747 0.0 1009126
08:00+8зюз469474 0.0 1011280
11:00+12зюз347576 0.1 1011967
14:00+13з347376 0.8 10111091
17:00+12зсз358598 1.1 1011502
20:00+11ссз3491100 2.6 1012216
19 мая, ср
ср1923:00+7ссз339341 0.3 101442
02:00+5зсз22943 0.3 101518
05:00+5зюз339626 0.0 101538
08:00+8зюз239019 0.0 1016224
11:00+13зюз447336 0.3 10161164
14:00+15зюз346580 1.1 10151502
17:00+13зюз4580100 2.9 1015786
20:00+10ссз469598 9.1 1016197
20 мая, чт
чт2023:00+8ссз229497 0.6 101715
02:00+6сз22955 0.6 101824
05:00+4зсз34955 0.0 102059
08:00+8зсз35925 0.0 1021265
11:00+12з457261 0.1 10221162
14:00+14з566741 0.9 10221361
17:00+14з567040 1.0 10211192
20:00+13зюз348077 1.2 1020100
21 мая, пт
пт2123:00+10ююз3583100 0.1 101987
02:00+9ююз3590100 0.1 101786
05:00+9юз3990100 0.1 1015246
08:00+10ююз61384100 0.2 1013741
11:00+9ю81594100 3.4 1011810
14:00+10ююз71396100 6.7 1009779
17:00+11ююз61295100 2.8 10071104
20:00+11ююз6119439 3.4 1005643
22 мая, сб
сб2223:00+9ююз5129638 0.1 1004319
02:00+8ю51196100 0.1 1002254
05:00+8ююз613930 0.1 1001428
08:00+10ююз91590100 0.2 10021320
11:00+12ююз111680100 0.2 10021434
14:00+13юз11168060 0.6 10031572
17:00+13юз10168471 1.8 10031804
20:00+11юз7137841 2.7 1004979